TimeCDT,TemperatureF,Dew PointF,Humidity,Sea Level PressureIn,VisibilityMPH,Wind Direction,Wind SpeedMPH,Gust SpeedMPH,PrecipitationIn,Events,Conditions,WindDirDegrees,DateUTC
12:15 AM,52.7,42.3,68,29.74,10.0,ESE,5.8,-,N/A,,Clear,120,2012-10-21 05:15:00
12:35 AM,50.9,41.9,71,29.73,10.0,ESE,6.9,-,N/A,,Clear,120,2012-10-21 05:35:00
12:55 AM,50.5,42.1,73,29.73,10.0,ESE,5.8,-,N/A,,Clear,120,2012-10-21 05:55:00
1:15 AM,50.4,42.1,73,29.73,10.0,ESE,5.8,-,N/A,,Clear,120,2012-10-21 06:15:00
1:35 AM,50.9,42.8,74,29.73,10.0,ESE,5.8,-,N/A,,Clear,120,2012-10-21 06:35:00
1:55 AM,51.3,43.0,73,29.72,10.0,ESE,6.9,-,N/A,,Clear,120,2012-10-21 06:55:00
2:15 AM,50.9,43.0,74,29.72,10.0,ESE,8.1,-,N/A,,Clear,120,2012-10-21 07:15:00
2:35 AM,50.7,43.0,75,29.72,10.0,SE,6.9,-,N/A,,Clear,130,2012-10-21 07:35:00
2:55 AM,49.6,43.0,78,29.72,10.0,SE,6.9,-,N/A,,Clear,130,2012-10-21 07:55:00
3:15 AM,49.1,43.0,79,29.72,10.0,ESE,4.6,-,N/A,,Clear,120,2012-10-21 08:15:00
3:35 AM,48.9,43.0,80,29.72,10.0,SE,4.6,-,N/A,,Clear,130,2012-10-21 08:35:00
3:55 AM,48.4,43.0,82,29.72,10.0,SE,4.6,-,N/A,,Clear,130,2012-10-21 08:55:00
4:15 AM,47.8,42.8,83,29.72,10.0,SE,4.6,-,N/A,,Clear,130,2012-10-21 09:15:00
4:35 AM,47.5,42.8,84,29.71,10.0,SE,4.6,-,N/A,,Clear,130,2012-10-21 09:35:00
4:55 AM,46.6,42.3,85,29.72,10.0,SE,5.8,-,N/A,,Clear,140,2012-10-21 09:55:00
5:15 AM,46.4,42.6,87,29.72,10.0,SE,5.8,-,N/A,,Clear,140,2012-10-21 10:15:00
5:55 AM,46.4,42.8,87,29.72,10.0,SE,4.6,-,N/A,,Clear,140,2012-10-21 10:55:00
6:15 AM,46.6,43.0,87,29.73,10.0,SE,4.6,-,N/A,,Clear,140,2012-10-21 11:15:00
6:35 AM,46.6,43.2,88,29.73,10.0,SE,4.6,-,N/A,,Clear,130,2012-10-21 11:35:00
6:55 AM,46.2,43.2,89,29.73,10.0,ESE,3.5,-,N/A,,Clear,120,2012-10-21 11:55:00
7:15 AM,45.9,43.0,90,29.74,10.0,Calm,Calm,-,N/A,,Clear,0,2012-10-21 12:15:00
7:35 AM,46.0,43.2,90,29.74,10.0,Calm,Calm,-,N/A,,Clear,0,2012-10-21 12:35:00
7:55 AM,45.5,43.0,91,29.74,10.0,Calm,Calm,-,N/A,,Clear,0,2012-10-21 12:55:00
8:15 AM,45.5,43.2,92,29.75,10.0,Calm,Calm,-,N/A,,Clear,0,2012-10-21 13:15:00
8:35 AM,46.6,44.2,92,29.76,10.0,SE,3.5,-,N/A,,Clear,140,2012-10-21 13:35:00
8:55 AM,48.6,45.1,88,29.76,10.0,ESE,4.6,-,N/A,,Clear,120,2012-10-21 13:55:00
9:15 AM,49.8,46.2,87,29.77,10.0,ESE,3.5,-,N/A,,Clear,120,2012-10-21 14:15:00
9:35 AM,53.8,48.4,82,29.77,10.0,SE,5.8,-,N/A,,Clear,140,2012-10-21 14:35:00
9:55 AM,55.6,48.9,78,29.77,10.0,SSE,5.8,-,N/A,,Clear,150,2012-10-21 14:55:00
10:15 AM,57.9,50.2,75,29.78,10.0,SE,5.8,-,N/A,,Clear,140,2012-10-21 15:15:00
10:35 AM,60.3,51.8,74,29.78,10.0,ESE,3.5,-,N/A,,Clear,120,2012-10-21 15:35:00
10:55 AM,62.8,53.4,71,29.78,10.0,South,5.8,-,N/A,,Clear,190,2012-10-21 15:55:00
11:15 AM,64.4,54.1,69,29.78,10.0,SSE,5.8,-,N/A,,Clear,160,2012-10-21 16:15:00
11:35 AM,66.4,55.9,69,29.77,10.0,SSE,5.8,-,N/A,,Clear,150,2012-10-21 16:35:00
11:55 AM,67.8,55.9,66,29.76,10.0,SE,4.6,-,N/A,,Clear,130,2012-10-21 16:55:00
12:15 PM,69.1,57.4,66,29.77,10.0,SE,5.8,-,N/A,,Clear,140,2012-10-21 17:15:00
12:35 PM,70.2,57.7,65,29.76,10.0,SSE,5.8,-,N/A,,Clear,150,2012-10-21 17:35:00
12:55 PM,71.6,58.6,64,29.76,10.0,SSE,5.8,-,N/A,,Clear,150,2012-10-21 17:55:00
1:15 PM,72.0,59.2,64,29.75,10.0,SE,6.9,-,N/A,,Clear,130,2012-10-21 18:15:00
1:35 PM,73.4,59.2,61,29.74,10.0,SE,5.8,-,N/A,,Clear,140,2012-10-21 18:35:00
1:55 PM,73.6,59.2,61,29.73,10.0,ESE,5.8,-,N/A,,Clear,120,2012-10-21 18:55:00
2:15 PM,74.1,59.7,61,29.72,10.0,ESE,3.5,-,N/A,,Clear,120,2012-10-21 19:15:00
2:35 PM,75.9,60.8,59,29.71,10.0,SE,6.9,-,N/A,,Clear,140,2012-10-21 19:35:00
2:55 PM,77.7,62.2,59,29.71,10.0,SE,13.8,-,N/A,,Clear,140,2012-10-21 19:55:00
3:15 PM,78.4,61.0,55,29.71,10.0,East,6.9,16.1,N/A,,Clear,100,2012-10-21 20:15:00
3:35 PM,79.0,60.4,53,29.70,10.0,East,8.1,-,N/A,,Clear,100,2012-10-21 20:35:00
3:55 PM,79.3,60.1,52,29.70,10.0,SSE,13.8,-,N/A,,Clear,160,2012-10-21 20:55:00
4:15 PM,79.2,60.4,53,29.70,10.0,SSE,9.2,-,N/A,,Clear,160,2012-10-21 21:15:00
4:35 PM,79.2,60.8,53,29.71,10.0,SE,11.5,-,N/A,,Clear,140,2012-10-21 21:35:00
4:55 PM,79.0,60.8,54,29.70,10.0,SSE,10.4,-,N/A,,Clear,160,2012-10-21 21:55:00
5:15 PM,78.4,61.5,56,29.70,10.0,SSE,10.4,-,N/A,,Clear,150,2012-10-21 22:15:00
5:35 PM,77.9,61.7,57,29.71,10.0,SSE,8.1,-,N/A,,Clear,150,2012-10-21 22:35:00
5:55 PM,76.1,62.1,62,29.71,10.0,SE,6.9,-,N/A,,Scattered Clouds,140,2012-10-21 22:55:00
6:15 PM,74.5,62.1,65,29.72,10.0,SE,5.8,-,N/A,,Scattered Clouds,140,2012-10-21 23:15:00
6:35 PM,75.2,62.2,64,29.72,10.0,ESE,4.6,-,N/A,,Overcast,120,2012-10-21 23:35:00
6:55 PM,74.5,62.4,66,29.72,10.0,SE,4.6,-,N/A,,Mostly Cloudy,130,2012-10-21 23:55:00
7:15 PM,72.9,63.3,72,29.74,10.0,SSE,10.4,20.7,N/A,,Overcast,160,2012-10-22 00:15:00
7:35 PM,71.2,63.0,75,29.74,10.0,SSE,6.9,-,N/A,,Mostly Cloudy,150,2012-10-22 00:35:00
7:55 PM,70.3,63.0,77,29.75,10.0,Calm,Calm,-,N/A,,Mostly Cloudy,0,2012-10-22 00:55:00
8:15 PM,69.6,62.8,79,29.76,10.0,Calm,Calm,-,N/A,,Mostly Cloudy,0,2012-10-22 01:15:00
8:35 PM,69.3,62.6,79,29.76,10.0,Calm,Calm,-,N/A,,Mostly Cloudy,0,2012-10-22 01:35:00
8:55 PM,67.5,62.2,83,29.76,10.0,Calm,Calm,-,N/A,,Mostly Cloudy,0,2012-10-22 01:55:00
9:15 PM,67.3,62.6,85,29.77,10.0,Calm,Calm,-,N/A,,Scattered Clouds,0,2012-10-22 02:15:00
9:35 PM,66.6,62.4,86,29.77,10.0,Calm,Calm,-,N/A,,Scattered Clouds,0,2012-10-22 02:35:00
9:55 PM,64.9,62.4,92,29.78,7.0,Calm,Calm,-,N/A,,Mostly Cloudy,0,2012-10-22 02:55:00
10:15 PM,64.8,62.1,91,29.78,7.0,Calm,Calm,-,N/A,,Overcast,0,2012-10-22 03:15:00
10:35 PM,65.1,62.6,92,29.77,7.0,Calm,Calm,-,N/A,,Overcast,0,2012-10-22 03:35:00
10:55 PM,65.5,62.6,90,29.77,7.0,Calm,Calm,-,N/A,,Scattered Clouds,0,2012-10-22 03:55:00
11:15 PM,68.4,63.9,85,29.77,10.0,Calm,Calm,-,N/A,,Mostly Cloudy,0,2012-10-22 04:15:00
11:35 PM,68.9,64.0,84,29.77,3.0,East,3.5,-,N/A,Thunderstorm,Haze,100,2012-10-22 04:35:00
11:55 PM,68.9,64.4,86,29.77,10.0,Calm,Calm,-,N/A,,Overcast,0,2012-10-22 04:55:00